パンスターズ彗星

P/2018 P4 ( PanSTARRS )

English version
Home page
Updated on May 20, 2019

---------------------------------------------------------------------

・ プロフィール

発見日 2018年8月8日
発見光度 20.6等
発見者 Pan-STARRS 1 telescope (Haleakala)

・ 写真集

・ 軌道要素

Epoch 2018 Nov. 18.0 TT = JDT 2458440.5
T 2018 Nov. 7.34333 TT                                  MPCW
q   3.6661351            (2000.0)            P               Q
n   0.05736680     Peri.    8.11542     +0.99841206     -0.03092086
a   6.6582839      Node   353.11019     -0.01273767     +0.69032334
e   0.4493874      Incl.   23.11194     +0.05487366     +0.72283995
P  17.18
From 115 observations 2018 July 10-Dec. 4, mean residual 0".4.

・ 光度変化

        m1 = 11.0 + 5 logΔ + 10.0 log r

---------------------------------------------------------------------

軌道要素はM.P.E.C. 2019-J142に掲載されたものです。
光度グラフはComet for Windowsで作成したものです。

---------------------------------------------------------------------

Copyright(C) Seiichi Yoshida (comet@aerith.net). All rights reserved.